Notices

What's New in latest Release from April 7th, 2021:

- Updated Glossary, including Speed of Maximum Gust, and Total Hourly Precipitation

- Updated national and regional climate services offices contacts and prices information

- Addition of station inventory lists for 1981-2010, 1971-2000, and 1961-1990 Normals.

If you haven't already, please take our survey and provide feedback about our website: https://eccc.sondage-survey.ca/f/LanguageSelection.aspx?s=442ca660-fcf1-47c0-95a9-59707d6fd709

Hourly Data Report for December 16, 2020

CARBERRY CS
MANITOBA
Current Station Operator: ECCC - MSC

49°54'20.900" N
99°21'26.800" W
383.50 m
5010547
71170
WZE

Download Data

Hourly Data (December 2020)
Hourly Data Report for December 16, 2020
TIME
LST
Temp Definition
°C
Dew Point Definition
°C
Rel Hum Definition
%
Precip. Amount Definition
mm

Wind Dir Definition
10's deg

Wind Spd Definition
km/h
Visibility Definition
km
Stn Press Definition
kPa
Hmdx Definition


Wind Chill Definition


Weather Definition


00:00 -7.7 -10.0 84 0.0 17 15   96.34   -14 LegendNANA
01:00 -7.5 -9.7 84 0.0 17 15   96.26   -14 LegendNANA
02:00 -7.6 -9.6 85 0.0 16 13   96.17   -13 LegendNANA
03:00 -8.5 -10.2 87 0.0 15 11   96.13   -14 LegendNANA
04:00 -8.7 -10.3 88 0.0 15 9   96.06   -13 LegendNANA
05:00 -9.6 -10.9 91 0.0 14 5   96.03   -12 LegendNANA
06:00 -10.1 -11.0 93 0.0 11 6   95.98   -14 LegendNANA
07:00 -8.4 -9.4 92 0.0 15 5   95.99   -11 LegendNANA
08:00 -6.9 -8.2 91 0.0 16 6   96.00   -10 LegendNANA
09:00 -6.6 -7.9 90 0.0 16 7   96.01   -10 LegendNANA
10:00 -5.6 -7.1 89 0.0 18 6   96.03   -8 LegendNANA
11:00 -4.4 -5.9 89 0.0 18 8   96.04   -8 LegendNANA
12:00 -3.6 -5.1 89 0.0 21 3   96.03   -5 LegendNANA
13:00 -2.7 -4.4 88 0.0 25 4   96.03   -4 LegendNANA
14:00 -2.1 -4.1 87 0.0 27 11   96.09   -6 LegendNANA
15:00 -2.3 -4.0 88 0.0 26 9   96.11   -6 LegendNANA
16:00 -2.7 -3.7 93 0.0 28 16   96.19   -8 LegendNANA
17:00 -3.2 -3.3 100 0.0 28 15   96.28   -8 LegendNANA
18:00 -3.5 -3.8 98 0.0 28 19   96.35   -9 LegendNANA
19:00 -4.0 -4.0 100 0.0 28 16   96.40   -10 LegendNANA
20:00 -5.1 -5.2 99 0.0 28 20   96.44   -12 LegendNANA
21:00 -7.9 -9.3 89 0.0 27 13   96.44   -14 LegendNANA
22:00 -9.4 -10.9 89 0.0 23 7   96.46   -13 LegendNANA
23:00 -11.1 -12.5 90 0.0 23 5   96.45   -14 LegendNANA

Notes on Data Quality.

Legend

  • E = Estimated
  • M = Missing
  • NA = Not Available*
  • [empty] = Indicates an unobserved value
Date modified: